,,Stat5,,Stat1,,Stat2,,Stat3,,Stat4,,Wind1,,Wind1,
time,status,PA1M_AVG,status,PR1M_SUM,status,RH1M_AVG,status,SR1M_AVG,status,TA1M_AVG,status,W1dAve1m,status,W1sAve1m,
2001-06-14, 00:00:00,VALID,918.697,VALID,0,VALID,99.1152,VALID,0,VALID,19.3367,VALID,19,VALID,0.701686,
2001-06-14, 00:01:00,VALID,918.697,VALID,0,VALID,99.1101,VALID,0,VALID,19.3206,VALID,14,VALID,0.592601,
2001-06-14, 00:02:00,VALID,918.696,VALID,0,VALID,99.1228,VALID,0,VALID,19.3201,VALID,31,VALID,0.670186,
2001-06-14, 00:03:00,VALID,918.701,VALID,0,VALID,99.0872,VALID,-0.0339617,VALID,19.298,VALID,23,VALID,0.831731,
2001-06-14, 00:04:00,VALID,918.687,VALID,0,VALID,99.1038,VALID,-0.0339617,VALID,19.2749,VALID,39,VALID,0.681836,
2001-06-14, 00:05:00,VALID,918.671,VALID,0,VALID,99.0847,VALID,-0.0339617,VALID,19.2622,VALID,29,VALID,0.870404,
2001-06-14, 00:06:00,VALID,918.663,VALID,0,VALID,99.0898,VALID,-0.0169808,VALID,19.2267,VALID,7,VALID,0.507813,
2001-06-14, 00:07:00,VALID,918.646,VALID,0,VALID,99.0949,VALID,0,VALID,19.2272,VALID,14,VALID,0.626002,
2001-06-14, 00:08:00,VALID,918.644,VALID,0,VALID,99.1063,VALID,-0.0169808,VALID,19.2108,VALID,20,VALID,0.398438,
2001-06-14, 00:09:00,VALID,918.653,VALID,0,VALID,99.1165,VALID,0,VALID,19.2068,VALID,39,VALID,0.534455,
2001-06-14, 00:10:00,VALID,918.655,VALID,0,VALID,99.1241,VALID,0,VALID,19.2073,VALID,42,VALID,0.745226,
2001-06-14, 00:11:00,VALID,918.64,VALID,0,VALID,99.1114,VALID,-0.0169808,VALID,19.175,VALID,32,VALID,0.866365,
2001-06-14, 00:12:00,VALID,918.633,VALID,0,VALID,99.0974,VALID,-0.0169808,VALID,19.1626,VALID,47,VALID,0.760896,
2001-06-14, 00:13:00,VALID,918.63,VALID,0,VALID,99.1318,VALID,-0.0339617,VALID,19.1589,VALID,42,VALID,0.496505,
2001-06-14, 00:14:00,VALID,918.631,VALID,0,VALID,99.1381,VALID,-0.0339617,VALID,19.169,VALID,41,VALID,0.186233,
2001-06-14, 00:15:00,VALID,918.63,VALID,0,VALID,99.147,VALID,-0.0339617,VALID,19.1787,VALID,42,VALID,0.00295608,
2001-06-14, 00:16:00,VALID,918.633,VALID,0,VALID,99.1559,VALID,-0.0509425,VALID,19.1685,VALID,43,VALID,0.0589286,
2001-06-14, 00:17:00,VALID,918.627,VALID,0,VALID,99.1483,VALID,-0.0509425,VALID,19.1685,VALID,43,VALID,0.0635851,
2001-06-14, 00:18:00,VALID,918.612,VALID,0,VALID,99.1483,VALID,-0.0169808,VALID,19.1623,VALID,43,VALID,0,
2001-06-14, 00:19:00,VALID,918.601,VALID,0,VALID,99.1521,VALID,-0.0169808,VALID,19.1526,VALID,43,VALID,0,
2001-06-14, 00:20:00,VALID,918.594,VALID,0,VALID,99.1597,VALID,-0.0169808,VALID,19.1464,VALID,43,VALID,0,
2001-06-14, 00:21:00,VALID,918.564,VALID,0,VALID,99.1623,VALID,-0.0509425,VALID,19.1464,VALID,119,VALID,0.284152,
2001-06-14, 00:22:00,VALID,918.557,VALID,0,VALID,99.175,VALID,0,VALID,19.1623,VALID,151,VALID,0.589343,
2001-06-14, 00:23:00,VALID,918.542,VALID,0,VALID,99.1763,VALID,-0.0339617,VALID,19.1727,VALID,134,VALID,0.573361,
2001-06-14, 00:24:00,VALID,918.518,VALID,0,VALID,99.147,VALID,-0.0339617,VALID,19.1397,VALID,133,VALID,0.661133,
2001-06-14, 00:25:00,VALID,918.512,VALID,0,VALID,99.1483,VALID,0,VALID,19.1296,VALID,138,VALID,0.636502,
2001-06-14, 00:26:00,VALID,918.494,VALID,0,VALID,99.1419,VALID,-0.0169808,VALID,19.1107,VALID,136,VALID,0.816406,
2001-06-14, 00:27:00,VALID,918.473,VALID,0,VALID,99.1381,VALID,-0.0339617,VALID,19.0883,VALID,126,VALID,0.649777,
2001-06-14, 00:28:00,VALID,918.476,VALID,0,VALID,99.1457,VALID,-0.0339617,VALID,19.0754,VALID,78,VALID,0.321546,
2001-06-14, 00:29:00,VALID,918.482,VALID,0,VALID,99.1648,VALID,-0.0849042,VALID,19.0719,VALID,36,VALID,0.464316,
2001-06-14, 00:30:00,VALID,918.495,VALID,0,VALID,99.1788,VALID,-0.0509425,VALID,19.0947,VALID,38,VALID,0.346154,
2001-06-14, 00:31:00,VALID,918.501,VALID,0,VALID,99.2017,VALID,-0.0679233,VALID,19.1111,VALID,59,VALID,0.138086,
2001-06-14, 00:32:00,VALID,918.496,VALID,0,VALID,99.2068,VALID,-0.0509425,VALID,19.1104,VALID,79,VALID,0.352482,
2001-06-14, 00:33:00,VALID,918.504,VALID,0,VALID,99.2106,VALID,-0.0169808,VALID,19.1136,VALID,87,VALID,0.225761,
2001-06-14, 00:34:00,VALID,918.495,VALID,0,VALID,99.2144,VALID,-0.0169808,VALID,19.1199,VALID,108,VALID,0.350962,
2001-06-14, 00:35:00,VALID,918.481,VALID,0,VALID,99.2182,VALID,-0.0169808,VALID,19.1367,VALID,81,VALID,0.498998,
2001-06-14, 00:36:00,VALID,918.461,VALID,0,VALID,99.2144,VALID,0,VALID,19.14,VALID,90,VALID,0.396998,
2001-06-14, 00:37:00,VALID,918.436,VALID,0,VALID,99.2182,VALID,-0.0339617,VALID,19.143,VALID,91,VALID,0.169341,
2001-06-14, 00:38:00,VALID,918.415,VALID,0,VALID,99.222,VALID,-0.0509425,VALID,19.1467,VALID,137,VALID,0.251302,
2001-06-14, 00:39:00,VALID,918.383,VALID,0,VALID,99.2411,VALID,-0.0169808,VALID,19.1626,VALID,152,VALID,0.0130208,
2001-06-14, 00:40:00,VALID,918.366,VALID,0,VALID,99.2564,VALID,-0.0169808,VALID,19.1782,VALID,152,VALID,0.0617188,
2001-06-14, 00:41:00,VALID,918.357,VALID,0,VALID,99.2525,VALID,-0.0339617,VALID,19.1946,VALID,152,VALID,0.0897436,
2001-06-14, 00:42:00,VALID,918.358,VALID,0,VALID,99.25,VALID,-0.0339617,VALID,19.2046,VALID,102,VALID,0.356771,
2001-06-14, 00:43:00,VALID,918.363,VALID,0,VALID,99.2538,VALID,-0.0169808,VALID,19.211,VALID,132,VALID,0.265842,
2001-06-14, 00:44:00,VALID,918.363,VALID,0,VALID,99.2513,VALID,-0.0169808,VALID,19.2177,VALID,127,VALID,0.517475,
2001-06-14, 00:45:00,VALID,918.357,VALID,0,VALID,99.2538,VALID,0,VALID,19.2172,VALID,169,VALID,0.585732,
2001-06-14, 00:46:00,VALID,918.33,VALID,0,VALID,99.2487,VALID,-0.0169808,VALID,19.2138,VALID,148,VALID,0.629112,
2001-06-14, 00:47:00,VALID,918.335,VALID,0,VALID,99.2462,VALID,-0.0169808,VALID,19.2172,VALID,121,VALID,0.212416,
2001-06-14, 00:48:00,VALID,918.331,VALID,0,VALID,99.2602,VALID,0,VALID,19.223,VALID,105,VALID,0.218328,
2001-06-14, 00:49:00,VALID,918.317,VALID,0,VALID,99.2678,VALID,-0.0169808,VALID,19.2401,VALID,104,VALID,0.258705,
2001-06-14, 00:50:00,VALID,918.303,VALID,0,VALID,99.2564,VALID,0,VALID,19.2461,VALID,118,VALID,0.0358073,
2001-06-14, 00:51:00,VALID,918.29,VALID,0,VALID,99.2691,VALID,-0.0169808,VALID,19.2428,VALID,146,VALID,0.100561,
2001-06-14, 00:52:00,VALID,918.265,VALID,0,VALID,99.2602,VALID,-0.0169808,VALID,19.2528,VALID,137,VALID,0.219984,
2001-06-14, 00:53:00,VALID,918.243,VALID,0,VALID,99.2551,VALID,-0.0339617,VALID,19.2528,VALID,110,VALID,0.481291,
2001-06-14, 00:54:00,VALID,918.243,VALID,0,VALID,99.2449,VALID,0,VALID,19.2398,VALID,111,VALID,0.554018,
2001-06-14, 00:55:00,VALID,918.243,VALID,0,VALID,99.2437,VALID,-0.0339617,VALID,19.2302,VALID,143,VALID,0.452925,
2001-06-14, 00:56:00,VALID,918.245,VALID,0,VALID,99.2576,VALID,-0.0679233,VALID,19.2135,VALID,157,VALID,0.73266,
2001-06-14, 00:57:00,VALID,918.243,VALID,0,VALID,99.2564,VALID,0,VALID,19.217,VALID,142,VALID,0.455859,
2001-06-14, 00:58:00,VALID,918.248,VALID,0,VALID,99.236,VALID,-0.0339617,VALID,19.2205,VALID,147,VALID,0.710503,
2001-06-14, 00:59:00,VALID,918.233,VALID,0,VALID,99.2437,VALID,-0.0339617,VALID,19.2011,VALID,148,VALID,0.528429,
2001-06-14, 01:00:00,VALID,918.222,VALID,0,VALID,99.2653,VALID,-0.0509425,VALID,19.2078,VALID,138,VALID,0.160714,
2001-06-14, 01:01:00,VALID,918.196,VALID,0,VALID,99.2704,VALID,-0.0169808,VALID,19.2175,VALID,141,VALID,0.315584,
2001-06-14, 01:02:00,VALID,918.186,VALID,0,VALID,99.2513,VALID,0,VALID,19.2237,VALID,91,VALID,0.437711,
2001-06-14, 01:03:00,VALID,918.182,VALID,0,VALID,99.2513,VALID,-0.0169808,VALID,19.2207,VALID,107,VALID,0.430689,
2001-06-14, 01:04:00,VALID,918.18,VALID,0,VALID,99.2525,VALID,-0.0169808,VALID,19.1909,VALID,90,VALID,0.493164,
2001-06-14, 01:05:00,VALID,918.165,VALID,0,VALID,99.2678,VALID,0,VALID,19.1914,VALID,104,VALID,0.48989,
2001-06-14, 01:06:00,VALID,918.15,VALID,0,VALID,99.2602,VALID,-0.0169808,VALID,19.1979,VALID,142,VALID,0.753606,
2001-06-14, 01:07:00,VALID,918.133,VALID,0,VALID,99.2627,VALID,0,VALID,19.2043,VALID,156,VALID,0.816907,
2001-06-14, 01:08:00,VALID,918.113,VALID,0,VALID,99.2627,VALID,0,VALID,19.1815,VALID,140,VALID,0.540064,
2001-06-14, 01:09:00,VALID,918.089,VALID,0,VALID,99.2653,VALID,0,VALID,19.1852,VALID,156,VALID,0.390419,
2001-06-14, 01:10:00,VALID,918.082,VALID,0,VALID,99.2742,VALID,0,VALID,19.1879,VALID,119,VALID,0.388936,
2001-06-14, 01:11:00,VALID,918.064,VALID,0,VALID,99.2691,VALID,0,VALID,19.1877,VALID,79,VALID,0.461372,
2001-06-14, 01:12:00,VALID,918.047,VALID,0,VALID,99.2818,VALID,0,VALID,19.2073,VALID,64,VALID,0.813101,
2001-06-14, 01:13:00,VALID,918.034,VALID,0,VALID,99.2716,VALID,0.0169808,VALID,19.2172,VALID,58,VALID,0.751172,
2001-06-14, 01:14:00,VALID,918.012,VALID,0,VALID,99.2627,VALID,0.0339617,VALID,19.2075,VALID,70,VALID,0.702524,
2001-06-14, 01:15:00,VALID,918.008,VALID,0,VALID,99.2576,VALID,-0.0169808,VALID,19.1912,VALID,61,VALID,0.731771,
2001-06-14, 01:16:00,VALID,918.003,VALID,0,VALID,99.2615,VALID,0.0169808,VALID,19.1884,VALID,57,VALID,0.620226,
2001-06-14, 01:17:00,VALID,917.998,VALID,0,VALID,99.2653,VALID,-0.0339617,VALID,19.1981,VALID,44,VALID,0.576823,
2001-06-14, 01:18:00,VALID,917.998,VALID,0,VALID,99.2691,VALID,-0.0169808,VALID,19.1949,VALID,35,VALID,0.60403,
2001-06-14, 01:19:00,VALID,917.992,VALID,0,VALID,99.2907,VALID,-0.0339617,VALID,19.208,VALID,39,VALID,0.510896,
2001-06-14, 01:20:00,VALID,918.008,VALID,0,VALID,99.2843,VALID,-0.0169808,VALID,19.2142,VALID,62,VALID,0.678843,
2001-06-14, 01:21:00,VALID,918.013,VALID,0,VALID,99.2704,VALID,0,VALID,19.2043,VALID,71,VALID,0.695101,
2001-06-14, 01:22:00,VALID,918.033,VALID,0,VALID,99.2742,VALID,0,VALID,19.2043,VALID,62,VALID,0.730804,
2001-06-14, 01:23:00,VALID,918.043,VALID,0,VALID,99.2894,VALID,-0.0339617,VALID,19.1976,VALID,36,VALID,0.85178,
2001-06-14, 01:24:00,VALID,918.049,VALID,0,VALID,99.2971,VALID,0,VALID,19.211,VALID,47,VALID,0.685296,
2001-06-14, 01:25:00,VALID,918.058,VALID,0,VALID,99.2894,VALID,-0.0169808,VALID,19.1976,VALID,56,VALID,0.897615,
2001-06-14, 01:26:00,VALID,918.069,VALID,0,VALID,99.2971,VALID,-0.0169808,VALID,19.2043,VALID,49,VALID,0.51213,
2001-06-14, 01:27:00,VALID,918.065,VALID,0,VALID,99.278,VALID,-0.0169808,VALID,19.1976,VALID,80,VALID,0.684152,
2001-06-14, 01:28:00,VALID,918.077,VALID,0,VALID,99.2729,VALID,0,VALID,19.1914,VALID,93,VALID,0.878005,
2001-06-14, 01:29:00,VALID,918.082,VALID,0,VALID,99.2716,VALID,0,VALID,19.1787,VALID,85,VALID,0.795351,
2001-06-14, 01:30:00,VALID,918.084,VALID,0,VALID,99.2691,VALID,-0.0169808,VALID,19.1718,VALID,98,VALID,0.794531,
2001-06-14, 01:31:00,VALID,918.094,VALID,0,VALID,99.2665,VALID,-0.0339617,VALID,19.1621,VALID,100,VALID,0.718967,
2001-06-14, 01:32:00,VALID,918.103,VALID,0,VALID,99.2818,VALID,-0.0169808,VALID,19.1596,VALID,115,VALID,0.387587,
2001-06-14, 01:33:00,VALID,918.113,VALID,0,VALID,99.2831,VALID,0,VALID,19.1564,VALID,120,VALID,0.833705,
2001-06-14, 01:34:00,VALID,918.103,VALID,0,VALID,99.2932,VALID,0,VALID,19.1591,VALID,119,VALID,0.450041,
2001-06-14, 01:35:00,VALID,918.086,VALID,0,VALID,99.311,VALID,-0.0339617,VALID,19.1723,VALID,138,VALID,0.474451,
2001-06-14, 01:36:00,VALID,918.069,VALID,0,VALID,99.2983,VALID,-0.0339617,VALID,19.172,VALID,145,VALID,0.677885,
2001-06-14, 01:37:00,VALID,918.062,VALID,0,VALID,99.2983,VALID,-0.0169808,VALID,19.1752,VALID,155,VALID,0.929688,
2001-06-14, 01:38:00,VALID,918.057,VALID,0,VALID,99.3047,VALID,0,VALID,19.1889,VALID,126,VALID,0.892693,
2001-06-14, 01:39:00,VALID,918.051,VALID,0,VALID,99.3034,VALID,-0.0169808,VALID,19.1589,VALID,129,VALID,0.779046,
2001-06-14, 01:40:00,VALID,918.058,VALID,0,VALID,99.3009,VALID,0,VALID,19.1658,VALID,110,VALID,0.512019,
2001-06-14, 01:41:00,VALID,918.062,VALID,0,VALID,99.3034,VALID,0.0169808,VALID,19.1688,VALID,102,VALID,0.641026,
2001-06-14, 01:42:00,VALID,918.063,VALID,0,VALID,99.3149,VALID,-0.0339617,VALID,19.1653,VALID,126,VALID,0.492599,
2001-06-14, 01:43:00,VALID,918.066,VALID,0,VALID,99.3212,VALID,0,VALID,19.172,VALID,133,VALID,0.660051,
2001-06-14, 01:44:00,VALID,918.06,VALID,0,VALID,99.3199,VALID,-0.0169808,VALID,19.1688,VALID,124,VALID,0.799913,
2001-06-14, 01:45:00,VALID,918.061,VALID,0,VALID,99.3174,VALID,-0.0339617,VALID,19.169,VALID,110,VALID,0.458934,
2001-06-14, 01:46:00,VALID,918.051,VALID,0,VALID,99.3301,VALID,0,VALID,19.1522,VALID,126,VALID,0.207813,
2001-06-14, 01:47:00,VALID,918.047,VALID,0,VALID,99.3314,VALID,0,VALID,19.172,VALID,125,VALID,0.363782,
2001-06-14, 01:48:00,VALID,918.04,VALID,0,VALID,99.3301,VALID,0,VALID,19.1755,VALID,145,VALID,0.671675,
2001-06-14, 01:49:00,VALID,918.037,VALID,0,VALID,99.3288,VALID,-0.0169808,VALID,19.1748,VALID,136,VALID,0.612196,
2001-06-14, 01:50:00,VALID,918.029,VALID,0,VALID,99.3276,VALID,0,VALID,19.1748,VALID,133,VALID,0.274465,
2001-06-14, 01:51:00,VALID,918.004,VALID,0,VALID,99.3339,VALID,0,VALID,19.1723,VALID,143,VALID,0.115748,
2001-06-14, 01:52:00,VALID,917.993,VALID,0,VALID,99.3288,VALID,0,VALID,19.1782,VALID,144,VALID,0.118215,
2001-06-14, 01:53:00,VALID,917.988,VALID,0,VALID,99.3339,VALID,-0.0169808,VALID,19.1787,VALID,144,VALID,0.216639,
2001-06-14, 01:54:00,VALID,917.962,VALID,0,VALID,99.3225,VALID,-0.0169808,VALID,19.1752,VALID,140,VALID,0.180321,
2001-06-14, 01:55:00,VALID,917.958,VALID,0,VALID,99.3288,VALID,-0.0169808,VALID,19.1819,VALID,143,VALID,0.396652,
2001-06-14, 01:56:00,VALID,917.931,VALID,0,VALID,99.3238,VALID,0,VALID,19.1757,VALID,143,VALID,0.894531,
2001-06-14, 01:57:00,VALID,917.924,VALID,0,VALID,99.3174,VALID,-0.0509425,VALID,19.1593,VALID,143,VALID,0.914864,
2001-06-14, 01:58:00,VALID,917.919,VALID,0,VALID,99.3238,VALID,0,VALID,19.1529,VALID,155,VALID,0.816406,
2001-06-14, 01:59:00,VALID,917.92,VALID,0,VALID,99.3161,VALID,0,VALID,19.1469,VALID,154,VALID,0.864515,
2001-06-14, 02:00:00,VALID,917.916,VALID,0,VALID,99.325,VALID,-0.0169808,VALID,19.1335,VALID,142,VALID,1.15246,
2001-06-14, 02:01:00,VALID,917.922,VALID,0,VALID,99.3263,VALID,0,VALID,19.1335,VALID,137,VALID,0.602564,
2001-06-14, 02:02:00,VALID,917.919,VALID,0,VALID,99.3263,VALID,0,VALID,19.1337,VALID,136,VALID,0.93045,
2001-06-14, 02:03:00,VALID,917.915,VALID,0,VALID,99.3238,VALID,-0.0509425,VALID,19.1174,VALID,147,VALID,0.861914,
2001-06-14, 02:04:00,VALID,917.908,VALID,0,VALID,99.3339,VALID,-0.0509425,VALID,19.1139,VALID,144,VALID,0.532118,
2001-06-14, 02:05:00,VALID,917.922,VALID,0,VALID,99.3365,VALID,-0.0679233,VALID,19.1308,VALID,137,VALID,0.56467,
2001-06-14, 02:06:00,VALID,917.913,VALID,0,VALID,99.3339,VALID,-0.0169808,VALID,19.1206,VALID,131,VALID,0.518527,
2001-06-14, 02:07:00,VALID,917.916,VALID,0,VALID,99.3454,VALID,0,VALID,19.1273,VALID,129,VALID,0.465255,
2001-06-14, 02:08:00,VALID,917.913,VALID,0,VALID,99.3403,VALID,-0.0169808,VALID,19.1208,VALID,128,VALID,0.49451,
2001-06-14, 02:09:00,VALID,917.905,VALID,0,VALID,99.3466,VALID,0,VALID,19.1176,VALID,132,VALID,0.347556,
2001-06-14, 02:10:00,VALID,917.89,VALID,0,VALID,99.3505,VALID,-0.0169808,VALID,19.1238,VALID,152,VALID,0.373437,
2001-06-14, 02:11:00,VALID,917.877,VALID,0,VALID,99.3403,VALID,0,VALID,19.1203,VALID,158,VALID,0.425322,
2001-06-14, 02:12:00,VALID,917.848,VALID,0,VALID,99.3543,VALID,-0.0169808,VALID,19.1174,VALID,142,VALID,0.179287,
2001-06-14, 02:13:00,VALID,917.84,VALID,0,VALID,99.353,VALID,-0.0509425,VALID,19.1176,VALID,142,VALID,0.0310497,
2001-06-14, 02:14:00,VALID,917.824,VALID,0,VALID,99.3479,VALID,0,VALID,19.1044,VALID,142,VALID,0.309095,
2001-06-14, 02:15:00,VALID,917.831,VALID,0,VALID,99.3517,VALID,-0.0339617,VALID,19.1042,VALID,142,VALID,0.276933,
2001-06-14, 02:16:00,VALID,917.818,VALID,0,VALID,99.3492,VALID,-0.0339617,VALID,19.098,VALID,139,VALID,0.118454,
2001-06-14, 02:17:00,VALID,917.828,VALID,0,VALID,99.3594,VALID,-0.0509425,VALID,19.1047,VALID,221,VALID,0.286892,
2001-06-14, 02:18:00,VALID,917.834,VALID,0,VALID,99.3568,VALID,-0.0679233,VALID,19.1079,VALID,216,VALID,0.233173,
2001-06-14, 02:19:00,VALID,917.844,VALID,0,VALID,99.3619,VALID,-0.0509425,VALID,19.1141,VALID,221,VALID,0.00117188,
2001-06-14, 02:20:00,VALID,917.855,VALID,0,VALID,99.3721,VALID,-0.0679233,VALID,19.1241,VALID,221,VALID,0,
2001-06-14, 02:21:00,VALID,917.861,VALID,0,VALID,99.3708,VALID,-0.0679233,VALID,19.1308,VALID,221,VALID,0,
2001-06-14, 02:22:00,VALID,917.869,VALID,0,VALID,99.3657,VALID,-0.0509425,VALID,19.1372,VALID,221,VALID,0,
2001-06-14, 02:23:00,VALID,917.873,VALID,0,VALID,99.3619,VALID,-0.0509425,VALID,19.1467,VALID,203,VALID,0.00411184,
2001-06-14, 02:24:00,VALID,917.879,VALID,0,VALID,99.3428,VALID,-0.0509425,VALID,19.1308,VALID,148,VALID,0,
2001-06-14, 02:25:00,VALID,917.88,VALID,0,VALID,99.3543,VALID,-0.0679233,VALID,19.1079,VALID,99,VALID,0.122122,
2001-06-14, 02:26:00,VALID,917.892,VALID,0,VALID,99.3454,VALID,0.0169808,VALID,19.0935,VALID,109,VALID,0.171453,
2001-06-14, 02:27:00,VALID,917.895,VALID,0,VALID,99.3581,VALID,0.0679233,VALID,19.0935,VALID,111,VALID,0.257601,
2001-06-14, 02:28:00,VALID,917.885,VALID,0,VALID,99.3594,VALID,0.0679233,VALID,19.0968,VALID,127,VALID,0.350446,
2001-06-14, 02:29:00,VALID,917.883,VALID,0,VALID,99.3568,VALID,0.0509425,VALID,19.0901,VALID,126,VALID,0.417969,
2001-06-14, 02:30:00,VALID,917.868,VALID,0,VALID,99.3568,VALID,0.0169808,VALID,19.0933,VALID,132,VALID,0.368389,
2001-06-14, 02:31:00,VALID,917.868,VALID,0,VALID,99.3568,VALID,0.0849042,VALID,19.0868,VALID,108,VALID,0.639186,
2001-06-14, 02:32:00,VALID,917.876,VALID,0,VALID,99.3657,VALID,0.0339617,VALID,19.1005,VALID,114,VALID,0.396998,
2001-06-14, 02:33:00,VALID,917.87,VALID,0,VALID,99.3517,VALID,0.0679233,VALID,19.0871,VALID,114,VALID,0.442411,
2001-06-14, 02:34:00,VALID,917.858,VALID,0,VALID,99.3568,VALID,0.0849042,VALID,19.0836,VALID,101,VALID,0.362981,
2001-06-14, 02:35:00,VALID,917.844,VALID,0,VALID,99.3466,VALID,0.0339617,VALID,19.0705,VALID,104,VALID,0.299924,
2001-06-14, 02:36:00,VALID,917.836,VALID,0,VALID,99.3339,VALID,0.0339617,VALID,19.0516,VALID,110,VALID,0.399805,
2001-06-14, 02:37:00,VALID,917.806,VALID,0,VALID,99.3441,VALID,0.0339617,VALID,19.0481,VALID,102,VALID,0.51454,
2001-06-14, 02:38:00,VALID,917.786,VALID,0,VALID,99.3466,VALID,0.0169808,VALID,19.0319,VALID,114,VALID,0.402127,
2001-06-14, 02:39:00,VALID,917.753,VALID,0,VALID,99.3505,VALID,0.0339617,VALID,19.029,VALID,133,VALID,0.456473,
2001-06-14, 02:40:00,VALID,917.737,VALID,0,VALID,99.3454,VALID,0.0849042,VALID,19.0253,VALID,116,VALID,0.716077,
2001-06-14, 02:41:00,VALID,917.721,VALID,0,VALID,99.3505,VALID,-0.0339617,VALID,19.0302,VALID,106,VALID,0.616765,
2001-06-14, 02:42:00,VALID,917.699,VALID,0,VALID,99.3568,VALID,-0.0169808,VALID,19.0369,VALID,126,VALID,0.407652,
2001-06-14, 02:43:00,VALID,917.7,VALID,0,VALID,99.3466,VALID,-0.0169808,VALID,19.0269,VALID,119,VALID,0.559766,
2001-06-14, 02:44:00,VALID,917.697,VALID,0,VALID,99.3632,VALID,-0.0679233,VALID,19.0438,VALID,102,VALID,0.515625,
2001-06-14, 02:45:00,VALID,917.701,VALID,0,VALID,99.353,VALID,-0.0849042,VALID,19.0366,VALID,124,VALID,0.501002,
2001-06-14, 02:46:00,VALID,917.691,VALID,0,VALID,99.3644,VALID,-0.0339617,VALID,19.0495,VALID,130,VALID,0.541066,
2001-06-14, 02:47:00,VALID,917.7,VALID,0,VALID,99.3568,VALID,-0.0339617,VALID,19.0498,VALID,140,VALID,0.381811,
2001-06-14, 02:48:00,VALID,917.691,VALID,0,VALID,99.3606,VALID,-0.0679233,VALID,19.0592,VALID,121,VALID,0.59889,
2001-06-14, 02:49:00,VALID,917.7,VALID,0,VALID,99.3721,VALID,-0.0679233,VALID,19.0625,VALID,124,VALID,0.336149,
2001-06-14, 02:50:00,VALID,917.712,VALID,0,VALID,99.3734,VALID,-0.0679233,VALID,19.0692,VALID,119,VALID,0.478516,
2001-06-14, 02:51:00,VALID,917.731,VALID,0,VALID,99.3759,VALID,-0.0339617,VALID,19.0853,VALID,148,VALID,0.480168,
2001-06-14, 02:52:00,VALID,917.734,VALID,0,VALID,99.3734,VALID,-0.0509425,VALID,19.0858,VALID,93,VALID,0.769141,
2001-06-14, 02:53:00,VALID,917.73,VALID,0,VALID,99.3683,VALID,-0.0339617,VALID,19.0823,VALID,93,VALID,0.897436,
2001-06-14, 02:54:00,VALID,917.736,VALID,0,VALID,99.367,VALID,-0.0849042,VALID,19.0694,VALID,101,VALID,1.07953,
2001-06-14, 02:55:00,VALID,917.728,VALID,0,VALID,99.3568,VALID,-0.0509425,VALID,19.0659,VALID,103,VALID,0.572266,
2001-06-14, 02:56:00,VALID,917.724,VALID,0,VALID,99.3708,VALID,0.0339617,VALID,19.0714,VALID,147,VALID,0.395354,
2001-06-14, 02:57:00,VALID,917.719,VALID,0,VALID,99.3708,VALID,0.0509425,VALID,19.0575,VALID,115,VALID,0.68236,
2001-06-14, 02:58:00,VALID,917.704,VALID,0,VALID,99.3619,VALID,0.0679233,VALID,19.068,VALID,124,VALID,0.50699,
2001-06-14, 02:59:00,VALID,917.701,VALID,0,VALID,99.3721,VALID,0,VALID,19.0615,VALID,130,VALID,0.45587,
2001-06-14, 03:00:00,VALID,917.689,VALID,0,VALID,99.3784,VALID,0.0509425,VALID,19.0617,VALID,133,VALID,0.401394,
2001-06-14, 03:01:00,VALID,917.678,VALID,0,VALID,99.3606,VALID,0,VALID,19.058,VALID,132,VALID,0.604911,
2001-06-14, 03:02:00,VALID,917.667,VALID,0,VALID,99.3644,VALID,0,VALID,19.0516,VALID,127,VALID,0.526259,
2001-06-14, 03:03:00,VALID,917.645,VALID,0,VALID,99.3657,VALID,0.0169808,VALID,19.0548,VALID,116,VALID,0.847155,
2001-06-14, 03:04:00,VALID,917.623,VALID,0,VALID,99.3683,VALID,0.0849042,VALID,19.0414,VALID,109,VALID,0.871505,
2001-06-14, 03:05:00,VALID,917.61,VALID,0,VALID,99.3695,VALID,0.0339617,VALID,19.0518,VALID,118,VALID,0.836143,
2001-06-14, 03:06:00,VALID,917.584,VALID,0,VALID,99.3708,VALID,0.0339617,VALID,19.0518,VALID,104,VALID,0.764509,
2001-06-14, 03:07:00,VALID,917.573,VALID,0,VALID,99.3644,VALID,0.0509425,VALID,19.0451,VALID,99,VALID,1.10136,
2001-06-14, 03:08:00,VALID,917.571,VALID,0,VALID,99.3721,VALID,0.0339617,VALID,19.0453,VALID,121,VALID,0.634718,
2001-06-14, 03:09:00,VALID,917.558,VALID,0,VALID,99.3708,VALID,0.0169808,VALID,19.0287,VALID,105,VALID,0.632031,
2001-06-14, 03:10:00,VALID,917.553,VALID,0,VALID,99.3784,VALID,0.0339617,VALID,19.0354,VALID,106,VALID,0.462674,
2001-06-14, 03:11:00,VALID,917.572,VALID,0,VALID,99.3784,VALID,-0.0169808,VALID,19.0532,VALID,113,VALID,0.450087,
2001-06-14, 03:12:00,VALID,917.581,VALID,0,VALID,99.381,VALID,-0.0509425,VALID,19.0438,VALID,122,VALID,0.519196,
2001-06-14, 03:13:00,VALID,917.586,VALID,0,VALID,99.3848,VALID,-0.0169808,VALID,19.0398,VALID,113,VALID,0.900082,
2001-06-14, 03:14:00,VALID,917.599,VALID,0,VALID,99.3734,VALID,0,VALID,19.0398,VALID,110,VALID,0.938556,
2001-06-14, 03:15:00,VALID,917.618,VALID,0,VALID,99.3784,VALID,-0.0339617,VALID,19.0433,VALID,103,VALID,0.938301,
2001-06-14, 03:16:00,VALID,917.63,VALID,0,VALID,99.3772,VALID,-0.0339617,VALID,19.0401,VALID,105,VALID,0.873828,
2001-06-14, 03:17:00,VALID,917.649,VALID,0,VALID,99.3823,VALID,0,VALID,19.0366,VALID,98,VALID,1.01034,
2001-06-14, 03:18:00,VALID,917.661,VALID,0,VALID,99.3873,VALID,-0.0169808,VALID,19.0299,VALID,94,VALID,0.941907,
2001-06-14, 03:19:00,VALID,917.678,VALID,0,VALID,99.381,VALID,-0.0169808,VALID,19.0431,VALID,105,VALID,0.908454,
2001-06-14, 03:20:00,VALID,917.67,VALID,0,VALID,99.3797,VALID,-0.0339617,VALID,19.0371,VALID,99,VALID,0.658253,
2001-06-14, 03:21:00,VALID,917.656,VALID,0,VALID,99.3759,VALID,0,VALID,19.0433,VALID,101,VALID,0.568873,
2001-06-14, 03:22:00,VALID,917.639,VALID,0,VALID,99.367,VALID,-0.0169808,VALID,19.0302,VALID,113,VALID,0.655194,
2001-06-14, 03:23:00,VALID,917.623,VALID,0,VALID,99.3734,VALID,-0.0339617,VALID,19.0304,VALID,88,VALID,0.412326,
2001-06-14, 03:24:00,VALID,917.626,VALID,0,VALID,99.3657,VALID,-0.0679233,VALID,19.0309,VALID,97,VALID,0.723958,
2001-06-14, 03:25:00,VALID,917.621,VALID,0,VALID,99.3746,VALID,0,VALID,19.0177,VALID,114,VALID,0.729297,
2001-06-14, 03:26:00,VALID,917.634,VALID,0,VALID,99.3721,VALID,-0.0679233,VALID,19.0142,VALID,117,VALID,0.704527,
2001-06-14, 03:27:00,VALID,917.63,VALID,0,VALID,99.3708,VALID,-0.0679233,VALID,19.0276,VALID,107,VALID,0.834535,
2001-06-14, 03:28:00,VALID,917.632,VALID,0,VALID,99.3644,VALID,-0.0679233,VALID,19.0244,VALID,115,VALID,1.00716,
2001-06-14, 03:29:00,VALID,917.628,VALID,0,VALID,99.3594,VALID,-0.0169808,VALID,19.0177,VALID,115,VALID,0.792763,
2001-06-14, 03:30:00,VALID,917.624,VALID,0,VALID,99.3746,VALID,0,VALID,19.0205,VALID,113,VALID,0.836349,
2001-06-14, 03:31:00,VALID,917.628,VALID,0,VALID,99.367,VALID,0,VALID,19.0304,VALID,118,VALID,0.670436,
2001-06-14, 03:32:00,VALID,917.62,VALID,0,VALID,99.3619,VALID,-0.0169808,VALID,19.0302,VALID,134,VALID,0.838471,